Location: Gu�tanj
(46.5431°N, 14.9692°E)
Time: 16:32:40
(UTC+00:00)

YAOGAN 1 - Pass Details

Date: 03 March 2021
Orbit: 618 x 620 km, 97.9° (Epoch: 15 April)

Event Time Altitude Azimuth Distance (km) Brightness Sun altitude
Rises 17:36:54 0° 164° (SSE) 2,884 5.8 -9.0°
Reaches altitude 10° 17:39:04 10° 165° (SSE) 1,983 5.0 -9.4°
Maximum altitude 17:43:24 88° 75° (ENE) 628 2.6 -10.1°
Drops below altitude 10° 17:47:45 10° 347° (NNW) 1,999 5.4 -10.9°
Sets 17:49:57 0° 347° (NNW) 2,910 6.2 -11.3°
